Location: Il Ritiro
(43.4167°N, 13.1333°E)
Time: 17:05:07
(UTC+00:00)

Terra - Pass Details

Date: 05 July 2020
Orbit: 701 x 703 km, 98.2° (Epoch: 11 August)

Event Time Altitude Azimuth Distance (km) Brightness Sun altitude
Exits shadow 22:10:30 17° 238° (WSW) 1,725 3.7 -22.4°
Maximum altitude 22:12:14 21° 267° (W) 1,560 3.7 -22.5°
Drops below altitude 10° 22:15:50 10° 316° (NW) 2,178 5.2 -22.7°
Sets 22:18:37 0° 333° (NNW) 3,102 6.5 -22.8°
